Time,TemperatureF,DewpointF,PressureIn,WindDirection,WindDirectionDegrees,WindSpeedMPH,WindSpeedGustMPH,Humidity,HourlyPrecipIn,Conditions,Clouds,dailyrainin,SoftwareType,DateUTC
2013-08-11 00:11:00,49.5,48.0,30.16,West,281,0.0,-999.0,93,-99.99,,,0.00,weatherlink.com 1.10,2013-08-11 04:11:00,
2013-08-11 00:26:00,49.4,48.0,30.16,West,280,0.0,-999.0,94,-99.99,,,0.00,weatherlink.com 1.10,2013-08-11 04:26:00,
2013-08-11 00:41:00,48.8,47.0,30.16,West,280,0.0,-999.0,93,-99.99,,,0.00,weatherlink.com 1.10,2013-08-11 04:41:00,
2013-08-11 00:56:00,48.2,47.0,30.16,West,281,0.0,-999.0,94,-99.99,,,0.00,weatherlink.com 1.10,2013-08-11 04:56:00,
2013-08-11 01:11:00,47.8,46.0,30.16,West,281,0.0,-999.0,94,-99.99,,,0.00,weatherlink.com 1.10,2013-08-11 05:11:00,
2013-08-11 01:26:00,48.3,47.0,30.16,West,281,0.0,-999.0,94,-99.99,,,0.00,weatherlink.com 1.10,2013-08-11 05:26:00,
2013-08-11 01:56:00,47.3,46.0,30.17,West,280,0.0,-999.0,95,-99.99,,,0.00,weatherlink.com 1.10,2013-08-11 05:56:00,
2013-08-11 02:11:00,46.7,45.0,30.17,West,280,0.0,-999.0,94,-99.99,,,0.00,weatherlink.com 1.10,2013-08-11 06:11:00,
2013-08-11 02:26:00,46.1,45.0,30.17,West,280,0.0,-999.0,94,-99.99,,,0.00,weatherlink.com 1.10,2013-08-11 06:26:00,
2013-08-11 02:41:00,45.7,44.0,30.18,West,281,0.0,-999.0,95,-99.99,,,0.00,weatherlink.com 1.10,2013-08-11 06:41:00,
2013-08-11 03:26:00,46.2,45.0,30.16,West,281,0.0,-999.0,95,-99.99,,,0.00,weatherlink.com 1.10,2013-08-11 07:26:00,
2013-08-11 03:41:00,45.9,45.0,30.16,West,280,0.0,-999.0,95,-99.99,,,0.00,weatherlink.com 1.10,2013-08-11 07:41:00,
2013-08-11 03:56:00,45.4,44.0,30.17,West,280,1.0,-999.0,95,-99.99,,,0.00,weatherlink.com 1.10,2013-08-11 07:56:00,
2013-08-11 04:11:00,45.0,44.0,30.17,West,280,0.0,-999.0,95,-99.99,,,0.00,weatherlink.com 1.10,2013-08-11 08:11:00,
2013-08-11 04:26:00,45.0,44.0,30.16,West,281,0.0,-999.0,96,-99.99,,,0.00,weatherlink.com 1.10,2013-08-11 08:26:00,
2013-08-11 04:41:00,44.7,44.0,30.16,West,281,0.0,-999.0,96,-99.99,,,0.00,weatherlink.com 1.10,2013-08-11 08:41:00,
2013-08-11 04:56:00,44.4,43.0,30.16,West,281,0.0,-999.0,95,-99.99,,,0.00,weatherlink.com 1.10,2013-08-11 08:56:00,
2013-08-11 05:11:00,44.2,43.0,30.17,West,281,0.0,-999.0,96,-99.99,,,0.00,weatherlink.com 1.10,2013-08-11 09:11:00,
2013-08-11 05:42:00,44.5,44.0,30.17,West,281,0.0,-999.0,96,-99.99,,,0.00,weatherlink.com 1.10,2013-08-11 09:42:00,
2013-08-11 06:11:00,45.8,45.0,30.17,West,281,1.0,-999.0,96,-99.99,,,0.00,weatherlink.com 1.10,2013-08-11 10:11:00,
2013-08-11 06:26:00,46.2,45.0,30.17,West,281,0.0,-999.0,96,-99.99,,,0.00,weatherlink.com 1.10,2013-08-11 10:26:00,
2013-08-11 06:56:00,47.2,46.0,30.17,ENE,59,0.0,-999.0,97,-99.99,,,0.00,weatherlink.com 1.10,2013-08-11 10:56:00,
2013-08-11 07:26:00,47.7,47.0,30.17,ENE,59,0.0,-999.0,97,-99.99,,,0.00,weatherlink.com 1.10,2013-08-11 11:26:00,
2013-08-11 07:56:00,50.2,49.0,30.17,ENE,59,2.0,-999.0,97,-99.99,,,0.00,weatherlink.com 1.10,2013-08-11 11:56:00,
2013-08-11 08:11:00,51.3,51.0,30.16,ENE,59,0.0,-999.0,97,-99.99,,,0.00,weatherlink.com 1.10,2013-08-11 12:11:00,
2013-08-11 08:26:00,52.8,52.0,30.16,ENE,59,0.0,-999.0,98,-99.99,,,0.00,weatherlink.com 1.10,2013-08-11 12:26:00,
2013-08-11 08:41:00,55.1,55.0,30.16,ENE,59,0.0,-999.0,98,-99.99,,,0.00,weatherlink.com 1.10,2013-08-11 12:41:00,
2013-08-11 08:56:00,56.3,56.0,30.16,ENE,59,0.0,-999.0,97,-99.99,,,0.00,weatherlink.com 1.10,2013-08-11 12:56:00,
2013-08-11 09:11:00,56.4,56.0,30.16,ENE,59,0.0,-999.0,97,-99.99,,,0.00,weatherlink.com 1.10,2013-08-11 13:11:00,
2013-08-11 09:26:00,57.5,57.0,30.16,ENE,59,2.0,-999.0,97,-99.99,,,0.00,weatherlink.com 1.10,2013-08-11 13:26:00,
2013-08-11 09:41:00,58.2,57.0,30.16,ENE,59,0.0,-999.0,97,-99.99,,,0.00,weatherlink.com 1.10,2013-08-11 13:41:00,
2013-08-11 10:11:00,60.9,60.0,30.16,South,190,0.0,-999.0,95,-99.99,,,0.00,weatherlink.com 1.10,2013-08-11 14:11:00,
2013-08-11 10:26:00,62.4,60.0,30.16,SW,233,3.0,-999.0,93,-99.99,,,0.00,weatherlink.com 1.10,2013-08-11 14:26:00,
2013-08-11 10:42:00,65.1,60.0,30.16,NW,317,0.0,-999.0,82,-99.99,,,0.00,weatherlink.com 1.10,2013-08-11 14:42:00,
2013-08-11 10:57:00,65.7,60.0,30.15,NW,309,5.0,-999.0,83,-99.99,,,0.00,weatherlink.com 1.10,2013-08-11 14:57:00,
2013-08-11 11:12:00,65.9,60.0,30.15,NW,310,5.0,-999.0,82,-99.99,,,0.00,weatherlink.com 1.10,2013-08-11 15:12:00,
2013-08-11 11:27:00,66.8,61.0,30.15,SW,232,5.0,-999.0,81,-99.99,,,0.00,weatherlink.com 1.10,2013-08-11 15:27:00,
2013-08-11 11:42:00,67.7,61.0,30.14,West,260,4.0,-999.0,78,-99.99,,,0.00,weatherlink.com 1.10,2013-08-11 15:42:00,
2013-08-11 11:57:00,68.3,59.0,30.14,WSW,255,2.0,-999.0,71,-99.99,,,0.00,weatherlink.com 1.10,2013-08-11 15:57:00,
2013-08-11 12:12:00,69.4,60.0,30.13,WNW,298,3.0,-999.0,73,-99.99,,,0.00,weatherlink.com 1.10,2013-08-11 16:12:00,
2013-08-11 12:27:00,70.1,58.0,30.13,NW,306,5.0,-999.0,66,-99.99,,,0.00,weatherlink.com 1.10,2013-08-11 16:27:00,
2013-08-11 12:42:00,70.5,60.0,30.12,West,260,1.0,-999.0,69,-99.99,,,0.00,weatherlink.com 1.10,2013-08-11 16:42:00,
2013-08-11 12:57:00,70.8,60.0,30.12,NW,313,4.0,-999.0,68,-99.99,,,0.00,weatherlink.com 1.10,2013-08-11 16:57:00,
2013-08-11 13:12:00,71.7,61.0,30.12,West,277,5.0,-999.0,70,-99.99,,,0.00,weatherlink.com 1.10,2013-08-11 17:12:00,
2013-08-11 13:27:00,71.9,59.0,30.12,West,279,3.0,-999.0,63,-99.99,,,0.00,weatherlink.com 1.10,2013-08-11 17:27:00,
2013-08-11 13:42:00,71.9,59.0,30.12,NW,304,4.0,-999.0,64,-99.99,,,0.00,weatherlink.com 1.10,2013-08-11 17:42:00,
2013-08-11 13:57:00,72.0,61.0,30.12,West,259,5.0,-999.0,69,-99.99,,,0.00,weatherlink.com 1.10,2013-08-11 17:57:00,
2013-08-11 14:12:00,72.5,60.0,30.12,West,264,4.0,-999.0,64,-99.99,,,0.00,weatherlink.com 1.10,2013-08-11 18:12:00,
2013-08-11 14:27:00,72.4,59.0,30.12,NW,315,2.0,-999.0,63,-99.99,,,0.00,weatherlink.com 1.10,2013-08-11 18:27:00,
2013-08-11 14:42:00,73.7,60.0,30.12,WNW,287,5.0,-999.0,62,-99.99,,,0.00,weatherlink.com 1.10,2013-08-11 18:42:00,
2013-08-11 15:12:00,71.3,56.0,30.12,WNW,301,3.0,-999.0,59,-99.99,,,0.00,weatherlink.com 1.10,2013-08-11 19:12:00,
2013-08-11 15:27:00,70.7,58.0,30.11,WNW,302,2.0,-999.0,64,-99.99,,,0.00,weatherlink.com 1.10,2013-08-11 19:27:00,
2013-08-11 15:42:00,70.0,61.0,30.11,WNW,302,0.0,-999.0,73,-99.99,,,0.00,weatherlink.com 1.10,2013-08-11 19:42:00,
2013-08-11 15:56:00,69.7,61.0,30.10,WNW,302,0.0,-999.0,73,-99.99,,,0.00,weatherlink.com 1.10,2013-08-11 19:56:00,
2013-08-11 16:11:00,72.2,61.0,30.10,NNW,331,3.0,-999.0,68,-99.99,,,0.00,weatherlink.com 1.10,2013-08-11 20:11:00,
2013-08-11 16:26:00,73.2,59.0,30.09,NNW,339,1.0,-999.0,62,-99.99,,,0.00,weatherlink.com 1.10,2013-08-11 20:26:00,
2013-08-11 16:41:00,74.1,60.0,30.09,NW,322,4.0,-999.0,61,-99.99,,,0.00,weatherlink.com 1.10,2013-08-11 20:41:00,
2013-08-11 17:11:00,73.5,57.0,30.09,WNW,294,7.0,-999.0,57,-99.99,,,0.00,weatherlink.com 1.10,2013-08-11 21:11:00,
2013-08-11 17:26:00,73.9,59.0,30.08,NNW,340,6.0,-999.0,60,-99.99,,,0.00,weatherlink.com 1.10,2013-08-11 21:26:00,
2013-08-11 18:12:00,73.7,60.0,30.08,WSW,250,5.0,-999.0,63,-99.99,,,0.00,weatherlink.com 1.10,2013-08-11 22:12:00,
2013-08-11 18:27:00,73.8,59.0,30.07,West,279,4.0,-999.0,61,-99.99,,,0.00,weatherlink.com 1.10,2013-08-11 22:27:00,
2013-08-11 18:42:00,73.0,60.0,30.07,SW,223,6.0,-999.0,64,-99.99,,,0.00,weatherlink.com 1.10,2013-08-11 22:42:00,
2013-08-11 19:27:00,70.6,59.0,30.06,West,278,3.0,-999.0,67,-99.99,,,0.00,weatherlink.com 1.10,2013-08-11 23:27:00,
2013-08-11 19:42:00,70.3,60.0,30.07,West,263,4.0,-999.0,71,-99.99,,,0.00,weatherlink.com 1.10,2013-08-11 23:42:00,
2013-08-11 20:12:00,69.0,61.0,30.07,West,263,0.0,-999.0,75,-99.99,,,0.00,weatherlink.com 1.10,2013-08-12 00:12:00,
2013-08-11 20:27:00,68.0,61.0,30.07,West,263,1.0,-999.0,77,-99.99,,,0.00,weatherlink.com 1.10,2013-08-12 00:27:00,
2013-08-11 20:42:00,66.9,60.0,30.07,West,263,0.0,-999.0,79,-99.99,,,0.00,weatherlink.com 1.10,2013-08-12 00:42:00,
2013-08-11 20:57:00,65.9,60.0,30.07,West,263,0.0,-999.0,82,-99.99,,,0.00,weatherlink.com 1.10,2013-08-12 00:57:00,
2013-08-11 21:12:00,65.2,60.0,30.08,West,263,0.0,-999.0,82,-99.99,,,0.00,weatherlink.com 1.10,2013-08-12 01:12:00,
2013-08-11 21:27:00,63.3,58.0,30.08,West,263,0.0,-999.0,83,-99.99,,,0.00,weatherlink.com 1.10,2013-08-12 01:27:00,
2013-08-11 21:57:00,59.7,57.0,30.09,West,263,0.0,-999.0,89,-99.99,,,0.00,weatherlink.com 1.10,2013-08-12 01:57:00,
2013-08-11 22:12:00,59.0,56.0,30.09,West,263,0.0,-999.0,91,-99.99,,,0.00,weatherlink.com 1.10,2013-08-12 02:12:00,
2013-08-11 22:27:00,58.4,56.0,30.08,West,263,0.0,-999.0,91,-99.99,,,0.00,weatherlink.com 1.10,2013-08-12 02:27:00,
2013-08-11 22:57:00,55.9,54.0,30.08,West,263,0.0,-999.0,92,-99.99,,,0.00,weatherlink.com 1.10,2013-08-12 02:57:00,
2013-08-11 23:27:00,55.0,53.0,30.08,West,263,0.0,-999.0,93,-99.99,,,0.00,weatherlink.com 1.10,2013-08-12 03:27:00,
2013-08-11 23:42:00,54.3,53.0,30.08,West,263,0.0,-999.0,94,-99.99,,,0.00,weatherlink.com 1.10,2013-08-12 03:42:00,
2013-08-11 23:57:00,54.1,53.0,30.08,West,263,0.0,-999.0,94,-99.99,,,0.00,weatherlink.com 1.10,2013-08-12 03:57:00,